Radiation Dose at Monitoring Post of Fukushima Daini Nuclear Power Station
Date,Time,MP-1(microSv/h),MP-2(microSv/h),MP-3(microSv/h),MP-4(microSv/h),MP-5(microSv/h),MP-6(microSv/h),MP-7(microSv/h),Wind Direction,Wind Velocity(m/s),Rain
2017/05/03,00:00,0.378,0.230,0.396,0.364,0.328,0.191,0.165,south,3.8,No
2017/05/03,00:10,0.380,0.230,0.393,0.364,0.328,0.191,0.165,south,4.0,No
2017/05/03,00:20,0.382,0.230,0.393,0.364,0.330,0.192,0.166,south-southwest,3.6,No
2017/05/03,00:30,0.379,0.230,0.392,0.364,0.329,0.192,0.166,south-southwest,5.2,No
2017/05/03,00:40,0.381,0.230,0.394,0.363,0.329,0.192,0.165,south,5.9,No
2017/05/03,00:50,0.380,0.231,0.395,0.364,0.330,0.194,0.166,south,5.2,No
2017/05/03,01:00,0.377,0.230,0.394,0.365,0.331,0.193,0.164,south-southwest,6.4,No
2017/05/03,01:10,0.380,0.230,0.395,0.364,0.329,0.192,0.167,south-southwest,6.9,No
2017/05/03,01:20,0.381,0.230,0.396,0.363,0.331,0.192,0.166,south-southwest,5.6,No
2017/05/03,01:30,0.380,0.231,0.394,0.363,0.330,0.192,0.165,south-southwest,5.3,No
2017/05/03,01:40,0.380,0.230,0.393,0.363,0.329,0.192,0.165,south-southwest,4.7,No
2017/05/03,01:50,0.381,0.230,0.395,0.364,0.330,0.192,0.166,southwest,1.6,No
2017/05/03,02:00,0.380,0.229,0.395,0.365,0.330,0.192,0.166,south-southwest,1.9,No
2017/05/03,02:10,0.380,0.229,0.394,0.364,0.330,0.192,0.166,southwest,1.9,No
2017/05/03,02:20,0.381,0.230,0.394,0.364,0.329,0.191,0.166,southwest,3.9,No
2017/05/03,02:30,0.379,0.228,0.393,0.363,0.329,0.192,0.166,southwest,3.9,No
2017/05/03,02:40,0.379,0.229,0.395,0.364,0.330,0.192,0.165,southwest,4.2,No
2017/05/03,02:50,0.379,0.230,0.393,0.362,0.327,0.192,0.164,southwest,4.1,No
2017/05/03,03:00,0.380,0.230,0.393,0.362,0.330,0.192,0.165,southwest,4.5,No
2017/05/03,03:10,0.379,0.228,0.395,0.364,0.329,0.192,0.166,west-southwest,6.2,No
2017/05/03,03:20,0.380,0.230,0.394,0.363,0.328,0.191,0.166,west-southwest,5.0,No
2017/05/03,03:30,0.381,0.230,0.393,0.362,0.330,0.191,0.166,west-southwest,4.9,No
2017/05/03,03:40,0.379,0.229,0.393,0.362,0.330,0.193,0.165,west-southwest,4.4,No
2017/05/03,03:50,0.381,0.229,0.394,0.363,0.328,0.191,0.165,west-southwest,4.5,No
2017/05/03,04:00,0.379,0.230,0.394,0.363,0.328,0.191,0.165,west-southwest,3.6,No
2017/05/03,04:10,0.381,0.230,0.393,0.363,0.330,0.193,0.165,southwest,2.8,No
2017/05/03,04:20,0.379,0.230,0.395,0.363,0.329,0.193,0.165,southwest,2.5,No
2017/05/03,04:30,0.379,0.228,0.394,0.362,0.328,0.191,0.165,southwest,2.3,No
2017/05/03,04:40,0.378,0.230,0.393,0.363,0.330,0.192,0.165,south-southwest,4.7,No
2017/05/03,04:50,0.380,0.229,0.394,0.363,0.330,0.192,0.166,south-southwest,5.7,No
2017/05/03,05:00,0.379,0.229,0.393,0.364,0.327,0.193,0.166,southwest,5.3,No
2017/05/03,05:10,0.381,0.228,0.394,0.362,0.329,0.191,0.166,southwest,5.2,No
2017/05/03,05:20,0.380,0.230,0.392,0.362,0.328,0.192,0.164,southwest,6.3,No
2017/05/03,05:30,0.378,0.229,0.393,0.363,0.328,0.191,0.164,southwest,5.9,No
2017/05/03,05:40,0.379,0.229,0.394,0.363,0.329,0.192,0.164,southwest,5.4,No
2017/05/03,05:50,0.381,0.227,0.393,0.362,0.328,0.192,0.164,southwest,4.3,No
2017/05/03,06:00,0.378,0.229,0.393,0.362,0.327,0.192,0.163,southwest,3.5,No
2017/05/03,06:10,0.378,0.229,0.393,0.364,0.328,0.192,0.164,southwest,2.3,No
2017/05/03,06:20,0.380,0.229,0.393,0.363,0.327,0.192,0.163,south-southwest,2.1,No
2017/05/03,06:30,0.380,0.230,0.393,0.362,0.328,0.192,0.164,southwest,2.8,No
2017/05/03,06:40,0.380,0.229,0.393,0.362,0.329,0.191,0.163,south-southwest,3.3,No
2017/05/03,06:50,0.379,0.229,0.393,0.361,0.327,0.191,0.165,south-southwest,4.1,No
2017/05/03,07:00,0.378,0.228,0.391,0.362,0.329,0.192,0.164,south-southwest,4.5,No
2017/05/03,07:10,0.380,0.229,0.392,0.361,0.327,0.190,0.164,south-southwest,3.6,No
2017/05/03,07:20,0.378,0.227,0.389,0.361,0.330,0.192,0.164,south,1.7,No
2017/05/03,07:30,0.378,0.227,0.390,0.358,0.325,0.191,0.163,south,1.3,No
2017/05/03,07:40,0.378,0.226,0.388,0.361,0.329,0.191,0.165,south,2.2,No
2017/05/03,07:50,0.378,0.228,0.392,0.360,0.325,0.192,0.164,south,3.3,No
2017/05/03,08:00,0.377,0.227,0.390,0.360,0.329,0.190,0.164,south-southeast,2.8,No
2017/05/03,08:10,0.379,0.228,0.395,0.361,0.326,0.192,0.164,south-southeast,3.6,No
2017/05/03,08:20,0.375,0.228,0.393,0.359,0.328,0.191,0.164,south-southeast,5.6,No
2017/05/03,08:30,0.380,0.227,0.392,0.364,0.327,0.193,0.165,south,5.9,No
2017/05/03,08:40,0.377,0.229,0.391,0.361,0.328,0.191,0.164,south,5.9,No
2017/05/03,08:50,0.379,0.228,0.394,0.359,0.327,0.192,0.164,south,6.1,No
2017/05/03,09:00,0.378,0.230,0.392,0.364,0.330,0.191,0.165,south,6.0,No
2017/05/03,09:10,0.375,0.228,0.394,0.361,0.325,0.192,0.163,south,8.3,No
2017/05/03,09:20,0.379,0.228,0.390,0.358,0.327,0.192,0.163,south,8.3,No
2017/05/03,09:30,0.377,0.228,0.393,0.361,0.328,0.190,0.165,south,8.7,No
2017/05/03,09:40,0.374,0.227,0.391,0.363,0.326,0.191,0.163,south,7.5,No
2017/05/03,09:50,0.380,0.227,0.394,0.360,0.329,0.190,0.164,south,8.7,No
2017/05/03,10:00,0.379,0.228,0.391,0.359,0.328,0.191,0.165,south,10.2,No
2017/05/03,10:10,0.376,0.227,0.394,0.364,0.324,0.192,0.164,south,11.4,No
2017/05/03,10:20,0.379,0.229,0.392,0.363,0.329,0.191,0.165,south,11.2,No
2017/05/03,10:30,0.380,0.228,0.389,0.358,0.328,0.192,0.164,south,11.5,No
2017/05/03,10:40,0.378,0.227,0.393,0.364,0.327,0.191,0.164,south,12.3,No
2017/05/03,10:50,0.378,0.229,0.391,0.363,0.329,0.191,0.165,south,12.5,No
2017/05/03,11:00,0.381,0.227,0.388,0.361,0.328,0.192,0.164,south,12.1,No
2017/05/03,11:10,0.378,0.228,0.388,0.360,0.326,0.190,0.165,south,12.6,No
2017/05/03,11:20,0.374,0.229,0.393,0.363,0.328,0.192,0.165,south,13.5,No
2017/05/03,11:30,0.377,0.227,0.393,0.363,0.329,0.192,0.163,south,13.2,No
2017/05/03,11:40,0.379,0.227,0.388,0.360,0.327,0.191,0.165,south,13.2,No
2017/05/03,11:50,0.377,0.229,0.388,0.362,0.328,0.193,0.165,south,11.8,No
2017/05/03,12:00,0.377,0.228,0.391,0.366,0.330,0.192,0.165,south,12.5,No
2017/05/03,12:10,0.380,0.228,0.393,0.362,0.327,0.191,0.165,south,12.7,No
2017/05/03,12:20,0.379,0.231,0.392,0.360,0.325,0.193,0.165,south,12.8,No
2017/05/03,12:30,0.376,0.229,0.389,0.364,0.330,0.192,0.165,south,12.0,No
2017/05/03,12:40,0.379,0.229,0.390,0.365,0.329,0.191,0.165,south,14.5,No
2017/05/03,12:50,0.379,0.229,0.395,0.361,0.325,0.192,0.165,south,13.5,No
2017/05/03,13:00,0.378,0.228,0.394,0.364,0.330,0.191,0.165,south,14.0,No
2017/05/03,13:10,0.381,0.229,0.390,0.365,0.329,0.190,0.164,south,14.4,No
2017/05/03,13:20,0.381,0.229,0.391,0.362,0.326,0.193,0.165,south,13.7,No
2017/05/03,13:30,0.379,0.228,0.395,0.362,0.329,0.191,0.164,south,17.1,No
2017/05/03,13:40,0.378,0.230,0.395,0.365,0.330,0.191,0.165,south,14.6,No
2017/05/03,13:50,0.380,0.229,0.392,0.363,0.327,0.192,0.166,south,14.4,No
2017/05/03,14:00,0.378,0.229,0.389,0.362,0.326,0.191,0.164,south,14.5,No
2017/05/03,14:10,0.378,0.230,0.393,0.366,0.330,0.192,0.166,south,13.3,No
2017/05/03,14:20,0.381,0.229,0.396,0.364,0.328,0.193,0.165,south,14.9,No
2017/05/03,14:30,0.379,0.228,0.393,0.361,0.326,0.192,0.165,south,14.7,No
2017/05/03,14:40,0.376,0.229,0.390,0.366,0.330,0.191,0.166,south,12.9,No
2017/05/03,14:50,0.381,0.229,0.392,0.366,0.329,0.192,0.165,south,11.9,No
2017/05/03,15:00,0.378,0.230,0.397,0.363,0.328,0.192,0.166,south,12.4,No
2017/05/03,15:10,0.379,0.229,0.393,0.368,0.329,0.193,0.164,south,12.5,No
2017/05/03,15:20,0.382,0.229,0.391,0.364,0.331,0.192,0.166,south,11.8,No
2017/05/03,15:30,0.378,0.230,0.395,0.365,0.327,0.191,0.166,south,13.3,No
2017/05/03,15:40,0.381,0.228,0.395,0.367,0.330,0.192,0.164,south-southwest,12.3,No
2017/05/03,15:50,0.381,0.231,0.392,0.363,0.332,0.193,0.165,south-southwest,12.9,No
2017/05/03,16:00,0.378,0.229,0.398,0.367,0.327,0.191,0.165,south-southwest,14.2,No
2017/05/03,16:10,0.381,0.230,0.396,0.363,0.328,0.192,0.166,south-southwest,12.3,No
2017/05/03,16:20,0.378,0.231,0.393,0.365,0.332,0.192,0.166,south-southwest,11.2,No
2017/05/03,16:30,0.381,0.230,0.396,0.366,0.328,0.191,0.166,south-southwest,9.2,No
2017/05/03,16:40,0.382,0.231,0.394,0.365,0.330,0.193,0.165,south-southwest,8.6,No
2017/05/03,16:50,0.379,0.230,0.395,0.366,0.331,0.191,0.166,south-southwest,11.0,No
2017/05/03,17:00,0.382,0.230,0.394,0.363,0.327,0.192,0.165,south-southwest,10.8,No
2017/05/03,17:10,0.378,0.230,0.394,0.367,0.328,0.192,0.165,south-southwest,13.4,No
2017/05/03,17:20,0.381,0.230,0.396,0.364,0.330,0.191,0.165,south-southwest,13.7,No
2017/05/03,17:30,0.379,0.229,0.394,0.367,0.327,0.193,0.165,south-southwest,15.0,No
2017/05/03,17:40,0.380,0.229,0.397,0.365,0.332,0.192,0.166,south-southwest,12.0,No
2017/05/03,17:50,0.381,0.229,0.395,0.366,0.329,0.193,0.166,south-southwest,11.3,No
2017/05/03,18:00,0.380,0.229,0.395,0.365,0.332,0.192,0.165,south-southwest,11.8,No
2017/05/03,18:10,0.383,0.229,0.395,0.365,0.330,0.191,0.165,south-southwest,12.3,No
2017/05/03,18:20,0.380,0.230,0.397,0.367,0.332,0.191,0.166,south-southwest,7.4,No
2017/05/03,18:30,0.382,0.229,0.394,0.366,0.329,0.192,0.166,south-southwest,8.6,No
2017/05/03,18:40,0.379,0.231,0.398,0.365,0.331,0.192,0.165,south-southwest,10.0,No
2017/05/03,18:50,0.380,0.231,0.395,0.367,0.329,0.192,0.165,south-southwest,9.5,No
2017/05/03,19:00,0.379,0.230,0.397,0.365,0.333,0.191,0.164,south-southwest,11.5,No
2017/05/03,19:10,0.383,0.230,0.395,0.366,0.327,0.193,0.166,south-southwest,12.5,No
2017/05/03,19:20,0.380,0.229,0.396,0.366,0.331,0.191,0.164,south-southwest,11.0,No
2017/05/03,19:30,0.382,0.231,0.396,0.367,0.329,0.193,0.165,south-southwest,11.0,No
2017/05/03,19:40,0.379,0.231,0.396,0.365,0.330,0.192,0.166,south-southwest,11.6,No
2017/05/03,19:50,0.380,0.231,0.397,0.368,0.329,0.193,0.165,south-southwest,9.6,No
2017/05/03,20:00,0.380,0.230,0.395,0.364,0.331,0.193,0.166,south-southwest,7.8,No
2017/05/03,20:10,0.381,0.231,0.398,0.366,0.330,0.192,0.165,south-southwest,8.8,No
2017/05/03,20:20,0.381,0.230,0.394,0.364,0.330,0.192,0.166,south-southwest,9.5,No
2017/05/03,20:30,0.382,0.231,0.399,0.367,0.329,0.193,0.165,south-southwest,10.4,No
2017/05/03,20:40,0.380,0.229,0.394,0.365,0.329,0.192,0.166,south-southwest,10.0,No
2017/05/03,20:50,0.381,0.231,0.398,0.368,0.332,0.193,0.165,south-southwest,10.5,No
2017/05/03,21:00,0.382,0.229,0.396,0.365,0.329,0.193,0.166,south-southwest,10.1,No
2017/05/03,21:10,0.380,0.230,0.397,0.367,0.331,0.192,0.166,south-southwest,9.8,No
2017/05/03,21:20,0.381,0.230,0.396,0.366,0.328,0.193,0.165,south-southwest,9.9,No
2017/05/03,21:30,0.379,0.230,0.396,0.365,0.331,0.192,0.165,south-southwest,10.4,No
2017/05/03,21:40,0.382,0.230,0.396,0.368,0.328,0.192,0.165,south-southwest,10.2,No
2017/05/03,21:50,0.379,0.230,0.396,0.364,0.329,0.192,0.165,south-southwest,8.2,No
2017/05/03,22:00,0.381,0.230,0.397,0.367,0.330,0.193,0.166,south-southwest,7.9,No
2017/05/03,22:10,0.379,0.230,0.395,0.364,0.328,0.192,0.166,south-southwest,8.7,No
2017/05/03,22:20,0.383,0.230,0.397,0.368,0.330,0.193,0.165,south-southwest,8.0,No
2017/05/03,22:30,0.382,0.229,0.395,0.366,0.330,0.194,0.165,south-southwest,8.2,No
2017/05/03,22:40,0.381,0.231,0.396,0.367,0.331,0.191,0.166,southwest,7.2,No
2017/05/03,22:50,0.381,0.230,0.396,0.366,0.329,0.193,0.167,south-southwest,7.1,No
2017/05/03,23:00,0.380,0.230,0.397,0.367,0.331,0.193,0.165,south-southwest,7.0,No
2017/05/03,23:10,0.382,0.231,0.396,0.367,0.329,0.192,0.166,south-southwest,7.4,No
2017/05/03,23:20,0.379,0.230,0.396,0.366,0.331,0.192,0.166,south-southwest,8.7,No
2017/05/03,23:30,0.384,0.233,0.396,0.366,0.329,0.192,0.165,south-southwest,6.8,No
2017/05/03,23:40,0.381,0.230,0.397,0.366,0.331,0.193,0.165,south-southwest,6.9,No
2017/05/03,23:50,0.384,0.230,0.399,0.368,0.329,0.192,0.166,southwest,6.4,No
